Location: Godzisko
(49.9648°N, 19.4576°E)
Time: 06:45:17
(UTC+00:00)

CZ-2C R/B - Pass Details

Date: 20 April 2021
Orbit: 501 x 566 km, 97.7° (Epoch: 05 May)

Event Time Altitude Azimuth Distance (km) Brightness Sun altitude
Rises 02:11:50 0° 19° (NNE) 2,636 7.3 -13.2°
Reaches altitude 10° 02:14:00 10° 27° (NNE) 1,753 6.4 -12.9°
Maximum altitude 02:17:36 42° 99° (E) 755 3.9 -12.5°
Drops below altitude 10° 02:21:15 10° 171° (S) 1,772 5.2 -12.0°
Enters shadow 02:23:10 - 178° (S) 2,556 5.9 -11.7°
